SCP
0 0 0 1 1 1 1 0 1 1 1 1 1 1 0 0 0 0 0 0 0 0 0 0 -0 -0 -0 0 0 -0 -0 -0 -0 -0 -0 -0 -0 -0 0 0 -0 0 0
0 0 0 1 1 1 1 1 1 1 1 1 1 1 1 1 0 0 0 0 0 0 0 0 -0 0 0 0 0 0 -0 -0 -0 -0 0 -0 -0 -0 -0 0 -0 -0 -0
0 0 0 1 1 1 1 1 1 0 1 1 1 1 1 1 0 0 0 0 0 0 0 0 0 0 0 0 0 0 -0 -0 -0 -0 -0 -0 -0 -0 -0 0 0 0 -0
0 0 0 1 1 1 1 1 1 0 0 1 1 1 1 1 1 0 0 0 0 0 0 0 0 0 0 0 0 0 0 0 0 0 -0 -0 -0 -0 -0 0 0 0 0
0 0 1 1 1 1 1 1 1 1 1 1 1 1 1 1 1 0 0 0 0 0 0 0 0 0 0 0 0 0 0 0 0 -0 -0 -0 0 -0 -0 -0 -0 0 0
0 0 0 1 1 1 1 1 0 1 0 0 0 0 0 0 0 0 0 0 0 0 0 0 0 0 0 0 0 0 0 0 0 0 -0 -0 -0 -0 -0 -0 -0 -0 -0
0 1 1 1 1 1 1 0 1 1 0 0 0 0 0 0 0 0 0 0 0 0 0 0 0 0 0 0 0 0 0 0 0 0 0 -0 -0 -0 -0 -0 -0 -0 -0
1 1 1 1 1 0 0 0 0 1 1 1 1 0 1 0 0 0 0 0 0 0 0 0 0 0 0 0 0 0 0 0 0 0 0 0 0 -0 -0 -0 0 0 0
0 1 1 1 1 0 0 0 0 0 0 0 0 1 0 0 0 0 0 0 0 0 0 0 0 0 0 0 0 0 0 0 0 0 0 0 0 0 0 0 0 0 0
1 1 1 1 1 1 0 0 0 0 0 0 0 0 0 0 0 0 0 0 0 0 0 0 0 0 0 0 0 0 0 0 0 0 0 0 0 0 0 0 0 0 0
1 1 1 1 1 0 0 0 0 0 0 0 0 0 0 0 0 0 0 0 0 0 0 0 0 0 0 0 0 0 0 0 0 0 0 0 0 0 0 0 0 0 0
1 1 1 1 1 1 0 0 0 0 0 0 0 0 0 0 0 0 0 0 0 0 0 0 0 0 0 0 0 0 0 0 0 0 0 0 0 0 0 0 0 0 0
1 1 1 1 1 1 1 0 0 0 0 0 0 0 0 0 0 0 0 0 0 0 0 0 0 0 0 0 0 0 0 0 0 0 0 0 0 0 0 0 0 0 0
1 1 1 1 1 0 0 0 0 0 0 0 0 0 0 0 0 0 0 0 0 0 0 0 0 0 0 0 0 0 0 0 0 0 0 0 0 0 0 0 0 0 0
0 1 1 1 1 0 0 0 0 0 0 0 0 0 0 0 0 0 0 0 0 0 0 0 0 0 0 0 0 0 0 0 0 0 0 0 0 0 0 0 0 0 0
0 1 1 1 0 0 0 0 0 0 0 0 0 0 0 0 0 0 0 0 0 0 0 0 0 0 0 0 0 0 0 0 0 0 0 0 0 0 0 0 0 0 0
0 1 1 1 0 0 0 0 0 0 0 0 0 0 0 0 0 0 0 0 0 0 0 0 0 0 0 0 0 0 0 0 0 0 0 0 0 0 0 0 0 0 0
0 0 0 0 0 0 0 0 0 0 0 0 0 0 0 0 0 0 0 0 0 0 0 0 0 0 0 0 0 0 0 0 0 0 0 0 0 0 0 0 0 0 0
0 0 0 0 0 0 0 0 0 0 0 0 0 0 0 0 0 0 0 0 0 0 0 0 0 0 0 0 0 0 0 0 0 0 0 0 0 0 0 0 0 0 0
0 0 0 0 0 0 0 0 0 0 0 0 0 0 0 0 0 0 0 0 0 0 0 0 0 0 0 0 0 0 0 0 0 0 0 0 0 0 0 0 0 0 0
0 0 0 0 0 0 0 0 0 0 0 0 0 0 0 0 0 0 0 0 0 0 0 0 0 0 0 0 0 0 0 0 0 0 0 0 0 0 0 0 0 0 0
0 0 0 0 0 0 0 0 0 0 0 0 0 0 0 0 0 0 0 0 0 0 0 0 0 0 0 0 0 0 0 0 0 0 0 0 0 0 0 0 0 0 0
0 0 0 0 0 0 0 0 0 0 0 0 0 0 0 0 0 0 0 0 0 0 0 0 0 0 0 0 0 0 0 0 0 0 0 0 0 0 0 0 0 0 0
0 0 0 0 0 0 0 0 0 0 0 0 0 0 0 0 0 0 0 0 0 0 0 0 0 0 0 0 0 0 0 0 0 0 0 0 0 0 0 0 0 0 0
0 0 0 0 0 0 0 0 0 0 0 0 0 0 0 0 0 0 0 0 0 0 0 0 0 0 0 0 0 0 0 0 0 0 0 0 0 0 0 0 0 0 0
0 0 0 0 0 0 0 0 0 0 0 0 0 0 0 0 0 0 0 0 0 0 0 0 0 0 0 0 0 0 0 0 0 0 0 0 0 0 0 0 0 0 0
Wind_Speed_500mb
37 43 60 63 60 57 52 49 49 48 46 45 43 41 38 36 34 31 29 28 28 25 28 23 22 18 16 13 12 10 9 4 9 14 15 15 16 19 20 20 24 8 16
39 45 60 64 62 57 52 49 48 48 46 46 46 42 40 38 36 33 31 28 26 27 26 22 20 18 16 15 13 9 6 9 12 13 12 12 12 15 18 18 15 14 15
38 48 64 65 63 57 53 50 49 48 49 46 45 43 41 39 37 34 31 30 29 29 26 23 18 18 18 17 12 11 12 11 11 12 16 12 8 12 14 15 14 12 12
40 48 68 67 62 57 53 48 47 46 45 46 44 43 43 41 39 35 33 31 32 29 27 22 17 18 17 16 15 14 11 11 12 15 16 7 5 9 9 10 10 10 9
43 46 60 67 61 56 53 49 46 45 44 47 45 45 44 41 39 36 35 35 35 31 22 19 21 19 17 17 15 13 12 11 12 15 11 12 6 4 2 3 5 5 4
42 45 60 67 63 61 56 51 49 46 43 44 45 46 44 44 41 38 38 36 34 24 23 24 22 20 18 16 14 12 11 10 10 7 5 10 8 3 6 4 4 4 4
42 53 60 66 66 64 59 53 51 48 47 44 45 46 45 42 43 41 39 30 27 28 28 25 21 19 17 15 13 11 11 11 9 10 9 13 14 15 15 9 7 9 9
54 58 57 66 67 65 62 55 53 51 48 48 45 44 46 46 44 37 31 31 33 30 27 24 21 18 16 16 14 13 12 12 12 10 11 20 16 20 18 12 11 12 13
47 54 57 68 67 64 62 60 57 54 52 49 47 45 44 46 44 36 35 34 32 30 26 22 20 19 19 18 17 17 16 16 17 18 15 21 21 22 20 19 18 18 18
50 52 58 65 70 71 64 64 61 54 55 55 54 52 48 46 41 39 35 33 30 27 23 21 20 19 18 16 15 14 14 14 14 14 19 17 17 19 19 18 19 20 22
56 62 67 72 71 70 64 61 56 58 62 62 62 58 50 48 44 37 37 32 28 24 22 19 18 17 16 14 13 13 13 12 12 13 19 15 16 18 19 19 18 19 19
66 72 72 75 81 72 63 58 54 61 62 62 59 56 51 47 45 44 39 34 30 26 23 20 19 18 17 16 14 14 13 13 14 16 18 17 18 20 20 20 19 20 20
71 78 77 80 79 74 70 59 60 62 63 62 59 56 55 51 48 45 40 36 32 29 26 24 22 22 20 18 16 16 16 17 18 18 17 17 18 18 19 19 20 20 20
63 79 81 83 82 76 67 68 65 64 66 63 61 60 57 53 48 47 43 40 36 32 29 27 26 23 22 20 19 18 18 18 17 14 14 15 16 16 18 17 18 19 18
62 78 87 87 83 82 77 74 69 63 68 67 63 60 56 56 55 51 47 42 37 34 31 29 26 25 24 22 21 21 21 19 16 16 18 17 18 19 19 18 18 20 18
64 67 83 91 86 85 83 80 73 67 65 70 68 62 59 57 55 52 49 45 41 38 35 32 29 27 27 26 25 24 21 18 17 17 19 20 20 20 21 20 21 17 8
66 71 74 82 89 88 84 82 77 74 69 69 72 63 62 60 58 55 52 50 47 44 39 36 33 32 30 29 28 25 22 20 20 20 20 22 23 23 23 24 23 22 19
52 72 72 78 81 90 86 86 83 79 73 69 67 67 65 65 63 60 58 55 53 47 43 40 37 34 33 30 29 27 24 23 22 22 24 24 25 25 24 25 22 22 20
58 55 77 84 76 88 90 86 86 81 76 72 67 67 68 71 70 65 61 57 55 50 47 43 40 38 35 32 29 27 25 25 25 25 27 27 27 25 26 22 23 23 22
61 54 51 64 85 86 92 89 87 82 78 76 75 72 72 74 73 67 63 61 56 55 52 48 44 40 36 34 31 30 28 28 28 30 30 30 29 28 27 26 24 25 22
72 67 65 67 69 86 96 99 92 92 88 86 83 78 76 75 74 69 66 66 62 59 52 47 47 44 42 37 31 29 29 30 32 33 31 30 30 29 29 28 27 27 24
77 76 70 72 76 75 92 101 100 95 93 91 88 81 79 78 76 75 76 76 69 60 56 56 56 49 47 42 33 25 11 23 32 34 34 32 32 31 31 30 29 28 27
63 67 73 75 82 75 77 92 89 83 92 91 94 89 85 85 84 82 84 81 68 63 64 64 59 54 49 45 43 28 13 13 15 18 23 25 26 27 29 28 29 29 29
59 56 58 73 84 77 70 83 92 100 102 106 104 99 90 86 90 87 87 79 74 71 71 66 58 55 56 52 46 45 42 28 13 11 20 25 28 30 30 30 31 31 32
47 58 58 57 69 71 76 78 84 92 100 92 98 98 97 90 96 96 89 85 82 76 73 70 66 64 60 55 49 47 46 45 44 39 20 28 29 33 34 34 34 35 36
48 43 43 54 52 52 59 76 83 86 90 93 93 97 100 96 100 104 95 91 88 83 79 76 69 63 62 59 55 50 47 44 42 42 41 31 31 35 33 35 37 38 41
Wind_Direction_500mb
185 205 197 193 192 190 189 189 187 182 184 186 186 183 181 181 181 180 175 172 172 174 172 161 177 173 166 162 162 148 132 96 99 108 102 87 78 77 82 95 88 89 94
199 208 194 193 191 189 190 192 188 184 184 187 188 187 184 184 184 183 181 180 182 179 175 181 186 177 173 169 168 164 158 137 124 117 100 71 72 78 81 92 103 101 95
186 201 188 191 192 188 190 191 189 187 183 187 188 188 188 185 185 186 184 186 183 177 180 189 181 178 172 168 175 166 149 138 126 114 83 77 66 89 83 84 93 104 100
182 188 186 190 188 186 189 189 187 186 186 186 189 189 188 185 187 187 189 187 183 182 195 192 180 174 166 156 152 150 142 132 122 107 88 129 93 76 73 73 78 97 112
179 183 186 187 189 186 189 186 185 182 184 186 187 190 186 187 187 187 185 185 183 186 186 185 177 166 157 153 151 154 149 139 131 103 147 131 136 98 99 88 93 105 108
180 185 194 190 193 190 190 185 181 176 180 181 180 182 182 184 181 184 182 184 188 191 181 174 169 164 165 168 170 170 167 168 167 150 130 186 172 170 216 241 261 235 221
179 188 193 189 190 190 189 185 182 180 177 180 182 178 176 177 176 176 185 193 189 174 172 175 177 179 182 185 185 188 192 189 167 200 183 238 231 236 260 269 270 267 253
185 191 189 188 189 190 191 186 181 178 176 176 176 177 178 176 179 187 183 175 173 176 182 185 187 188 192 199 202 206 209 208 205 214 218 242 246 253 271 279 273 263 262
190 185 194 189 191 192 192 188 185 179 180 181 183 184 188 188 190 186 183 182 183 185 187 193 200 208 217 222 224 226 226 225 224 232 221 249 254 258 265 272 272 266 262
183 192 190 191 192 194 196 190 187 186 185 184 188 192 191 194 194 192 191 190 189 192 197 206 216 221 219 215 211 211 212 215 231 231 234 259 262 269 273 273 271 270 269
191 191 194 193 196 197 191 193 186 186 186 185 187 190 191 193 193 192 195 194 198 201 207 210 211 210 209 206 207 207 211 220 228 236 252 258 264 269 275 279 279 278 276
194 193 200 196 194 197 193 190 192 191 190 189 190 187 187 194 195 197 197 197 203 206 207 207 207 207 210 211 215 222 231 236 243 249 262 265 269 274 280 284 288 286 281
202 195 202 201 196 199 196 190 201 197 192 193 193 191 193 195 196 200 200 201 204 204 206 208 208 214 220 224 228 237 247 250 254 259 271 273 278 283 287 288 286 284 281
202 203 203 206 205 209 211 205 207 207 200 194 199 197 198 200 198 202 204 206 209 209 211 214 219 224 227 232 236 243 248 251 252 256 264 269 276 283 284 286 283 282 281
205 207 206 208 210 213 212 212 212 212 212 201 202 203 202 203 204 207 207 212 213 214 217 221 225 231 236 239 242 245 245 245 251 263 276 282 286 286 284 282 283 287 285
212 208 212 209 214 214 214 217 215 214 213 215 218 208 206 209 210 211 213 214 214 217 221 223 227 230 235 240 243 242 243 247 257 268 280 285 285 284 283 277 272 269 288
216 209 212 210 213 216 218 220 218 216 215 217 219 219 210 211 212 214 215 216 217 219 222 226 228 230 233 237 240 239 241 247 256 263 271 278 281 280 277 271 271 265 262
219 218 213 210 215 214 219 221 220 220 219 221 224 225 220 216 216 215 215 216 219 221 224 226 228 230 233 234 236 239 244 251 260 269 275 279 280 280 274 272 270 268 260
215 221 213 217 212 217 215 221 225 223 220 223 225 227 225 223 219 218 217 218 221 223 225 226 228 231 233 233 236 242 249 259 267 272 275 275 274 269 264 265 268 265 258
224 226 231 226 223 219 218 218 223 225 223 225 227 227 229 227 225 220 220 223 224 224 224 225 230 230 231 232 235 243 251 261 269 272 273 272 267 262 257 263 261 261 260
239 233 232 230 228 222 220 218 217 222 223 225 226 227 228 230 227 224 225 227 226 226 228 230 232 230 228 229 232 243 255 263 267 267 266 265 264 259 259 258 256 259 257
240 243 225 219 232 223 222 224 222 221 223 226 227 227 228 228 229 225 226 228 225 224 226 228 228 224 223 224 224 230 258 273 265 263 263 262 261 260 257 255 254 252 252
233 236 226 217 233 231 224 222 219 221 224 225 226 228 228 224 226 224 226 228 227 227 230 230 228 225 227 224 222 215 196 215 247 264 255 255 255 257 258 256 253 251 251
235 234 233 221 235 236 226 221 219 221 221 225 227 229 228 224 226 227 228 230 230 228 230 231 229 228 228 229 225 226 229 230 209 263 262 258 257 256 258 257 256 254 254
237 237 237 232 235 237 235 230 227 225 228 229 229 231 231 226 225 229 229 229 231 230 231 232 228 225 227 231 229 228 230 237 242 241 256 265 262 258 258 258 258 259 259
228 233 232 228 230 235 236 233 229 231 229 221 230 233 233 229 226 227 228 229 232 232 231 232 230 230 231 232 233 233 235 235 243 243 245 244 260 265 260 259 259 259 260
Wind_Speed_850mb
37 43 60 63 60 57 52 49 49 48 46 45 43 41 38 36 34 31 29 28 28 25 28 23 22 18 16 13 12 10 9 4 9 14 15 15 16 19 20 20 24 8 16
39 45 60 64 62 57 52 49 48 48 46 46 46 42 40 38 36 33 31 28 26 27 26 22 20 18 16 15 13 9 6 9 12 13 12 12 12 15 18 18 15 14 15
38 48 64 65 63 57 53 50 49 48 49 46 45 43 41 39 37 34 31 30 29 29 26 23 18 18 18 17 12 11 12 11 11 12 16 12 8 12 14 15 14 12 12
40 48 68 67 62 57 53 48 47 46 45 46 44 43 43 41 39 35 33 31 32 29 27 22 17 18 17 16 15 14 11 11 12 15 16 7 5 9 9 10 10 10 9
43 46 60 67 61 56 53 49 46 45 44 47 45 45 44 41 39 36 35 35 35 31 22 19 21 19 17 17 15 13 12 11 12 15 11 12 6 4 2 3 5 5 4
42 45 60 67 63 61 56 51 49 46 43 44 45 46 44 44 41 38 38 36 34 24 23 24 22 20 18 16 14 12 11 10 10 7 5 10 8 3 6 4 4 4 4
42 53 60 66 66 64 59 53 51 48 47 44 45 46 45 42 43 41 39 30 27 28 28 25 21 19 17 15 13 11 11 11 9 10 9 13 14 15 15 9 7 9 9
54 58 57 66 67 65 62 55 53 51 48 48 45 44 46 46 44 37 31 31 33 30 27 24 21 18 16 16 14 13 12 12 12 10 11 20 16 20 18 12 11 12 13
47 54 57 68 67 64 62 60 57 54 52 49 47 45 44 46 44 36 35 34 32 30 26 22 20 19 19 18 17 17 16 16 17 18 15 21 21 22 20 19 18 18 18
50 52 58 65 70 71 64 64 61 54 55 55 54 52 48 46 41 39 35 33 30 27 23 21 20 19 18 16 15 14 14 14 14 14 19 17 17 19 19 18 19 20 22
56 62 67 72 71 70 64 61 56 58 62 62 62 58 50 48 44 37 37 32 28 24 22 19 18 17 16 14 13 13 13 12 12 13 19 15 16 18 19 19 18 19 19
66 72 72 75 81 72 63 58 54 61 62 62 59 56 51 47 45 44 39 34 30 26 23 20 19 18 17 16 14 14 13 13 14 16 18 17 18 20 20 20 19 20 20
71 78 77 80 79 74 70 59 60 62 63 62 59 56 55 51 48 45 40 36 32 29 26 24 22 22 20 18 16 16 16 17 18 18 17 17 18 18 19 19 20 20 20
63 79 81 83 82 76 67 68 65 64 66 63 61 60 57 53 48 47 43 40 36 32 29 27 26 23 22 20 19 18 18 18 17 14 14 15 16 16 18 17 18 19 18
62 78 87 87 83 82 77 74 69 63 68 67 63 60 56 56 55 51 47 42 37 34 31 29 26 25 24 22 21 21 21 19 16 16 18 17 18 19 19 18 18 20 18
64 67 83 91 86 85 83 80 73 67 65 70 68 62 59 57 55 52 49 45 41 38 35 32 29 27 27 26 25 24 21 18 17 17 19 20 20 20 21 20 21 17 8
66 71 74 82 89 88 84 82 77 74 69 69 72 63 62 60 58 55 52 50 47 44 39 36 33 32 30 29 28 25 22 20 20 20 20 22 23 23 23 24 23 22 19
52 72 72 78 81 90 86 86 83 79 73 69 67 67 65 65 63 60 58 55 53 47 43 40 37 34 33 30 29 27 24 23 22 22 24 24 25 25 24 25 22 22 20
58 55 77 84 76 88 90 86 86 81 76 72 67 67 68 71 70 65 61 57 55 50 47 43 40 38 35 32 29 27 25 25 25 25 27 27 27 25 26 22 23 23 22
61 54 51 64 85 86 92 89 87 82 78 76 75 72 72 74 73 67 63 61 56 55 52 48 44 40 36 34 31 30 28 28 28 30 30 30 29 28 27 26 24 25 22
72 67 65 67 69 86 96 99 92 92 88 86 83 78 76 75 74 69 66 66 62 59 52 47 47 44 42 37 31 29 29 30 32 33 31 30 30 29 29 28 27 27 24
77 76 70 72 76 75 92 101 100 95 93 91 88 81 79 78 76 75 76 76 69 60 56 56 56 49 47 42 33 25 11 23 32 34 34 32 32 31 31 30 29 28 27
63 67 73 75 82 75 77 92 89 83 92 91 94 89 85 85 84 82 84 81 68 63 64 64 59 54 49 45 43 28 13 13 15 18 23 25 26 27 29 28 29 29 29
59 56 58 73 84 77 70 83 92 100 102 106 104 99 90 86 90 87 87 79 74 71 71 66 58 55 56 52 46 45 42 28 13 11 20 25 28 30 30 30 31 31 32
47 58 58 57 69 71 76 78 84 92 100 92 98 98 97 90 96 96 89 85 82 76 73 70 66 64 60 55 49 47 46 45 44 39 20 28 29 33 34 34 34 35 36
48 43 43 54 52 52 59 76 83 86 90 93 93 97 100 96 100 104 95 91 88 83 79 76 69 63 62 59 55 50 47 44 42 42 41 31 31 35 33 35 37 38 41
Wind_Direction_850mb
185 205 197 193 192 190 189 189 187 182 184 186 186 183 181 181 181 180 175 172 172 174 172 161 177 173 166 162 162 148 132 96 99 108 102 87 78 77 82 95 88 89 94
199 208 194 193 191 189 190 192 188 184 184 187 188 187 184 184 184 183 181 180 182 179 175 181 186 177 173 169 168 164 158 137 124 117 100 71 72 78 81 92 103 101 95
186 201 188 191 192 188 190 191 189 187 183 187 188 188 188 185 185 186 184 186 183 177 180 189 181 178 172 168 175 166 149 138 126 114 83 77 66 89 83 84 93 104 100
182 188 186 190 188 186 189 189 187 186 186 186 189 189 188 185 187 187 189 187 183 182 195 192 180 174 166 156 152 150 142 132 122 107 88 129 93 76 73 73 78 97 112
179 183 186 187 189 186 189 186 185 182 184 186 187 190 186 187 187 187 185 185 183 186 186 185 177 166 157 153 151 154 149 139 131 103 147 131 136 98 99 88 93 105 108
180 185 194 190 193 190 190 185 181 176 180 181 180 182 182 184 181 184 182 184 188 191 181 174 169 164 165 168 170 170 167 168 167 150 130 186 172 170 216 241 261 235 221
179 188 193 189 190 190 189 185 182 180 177 180 182 178 176 177 176 176 185 193 189 174 172 175 177 179 182 185 185 188 192 189 167 200 183 238 231 236 260 269 270 267 253
185 191 189 188 189 190 191 186 181 178 176 176 176 177 178 176 179 187 183 175 173 176 182 185 187 188 192 199 202 206 209 208 205 214 218 242 246 253 271 279 273 263 262
190 185 194 189 191 192 192 188 185 179 180 181 183 184 188 188 190 186 183 182 183 185 187 193 200 208 217 222 224 226 226 225 224 232 221 249 254 258 265 272 272 266 262
183 192 190 191 192 194 196 190 187 186 185 184 188 192 191 194 194 192 191 190 189 192 197 206 216 221 219 215 211 211 212 215 231 231 234 259 262 269 273 273 271 270 269
191 191 194 193 196 197 191 193 186 186 186 185 187 190 191 193 193 192 195 194 198 201 207 210 211 210 209 206 207 207 211 220 228 236 252 258 264 269 275 279 279 278 276
194 193 200 196 194 197 193 190 192 191 190 189 190 187 187 194 195 197 197 197 203 206 207 207 207 207 210 211 215 222 231 236 243 249 262 265 269 274 280 284 288 286 281
202 195 202 201 196 199 196 190 201 197 192 193 193 191 193 195 196 200 200 201 204 204 206 208 208 214 220 224 228 237 247 250 254 259 271 273 278 283 287 288 286 284 281
202 203 203 206 205 209 211 205 207 207 200 194 199 197 198 200 198 202 204 206 209 209 211 214 219 224 227 232 236 243 248 251 252 256 264 269 276 283 284 286 283 282 281
205 207 206 208 210 213 212 212 212 212 212 201 202 203 202 203 204 207 207 212 213 214 217 221 225 231 236 239 242 245 245 245 251 263 276 282 286 286 284 282 283 287 285
212 208 212 209 214 214 214 217 215 214 213 215 218 208 206 209 210 211 213 214 214 217 221 223 227 230 235 240 243 242 243 247 257 268 280 285 285 284 283 277 272 269 288
216 209 212 210 213 216 218 220 218 216 215 217 219 219 210 211 212 214 215 216 217 219 222 226 228 230 233 237 240 239 241 247 256 263 271 278 281 280 277 271 271 265 262
219 218 213 210 215 214 219 221 220 220 219 221 224 225 220 216 216 215 215 216 219 221 224 226 228 230 233 234 236 239 244 251 260 269 275 279 280 280 274 272 270 268 260
215 221 213 217 212 217 215 221 225 223 220 223 225 227 225 223 219 218 217 218 221 223 225 226 228 231 233 233 236 242 249 259 267 272 275 275 274 269 264 265 268 265 258
224 226 231 226 223 219 218 218 223 225 223 225 227 227 229 227 225 220 220 223 224 224 224 225 230 230 231 232 235 243 251 261 269 272 273 272 267 262 257 263 261 261 260
239 233 232 230 228 222 220 218 217 222 223 225 226 227 228 230 227 224 225 227 226 226 228 230 232 230 228 229 232 243 255 263 267 267 266 265 264 259 259 258 256 259 257
240 243 225 219 232 223 222 224 222 221 223 226 227 227 228 228 229 225 226 228 225 224 226 228 228 224 223 224 224 230 258 273 265 263 263 262 261 260 257 255 254 252 252
233 236 226 217 233 231 224 222 219 221 224 225 226 228 228 224 226 224 226 228 227 227 230 230 228 225 227 224 222 215 196 215 247 264 255 255 255 257 258 256 253 251 251
235 234 233 221 235 236 226 221 219 221 221 225 227 229 228 224 226 227 228 230 230 228 230 231 229 228 228 229 225 226 229 230 209 263 262 258 257 256 258 257 256 254 254
237 237 237 232 235 237 235 230 227 225 228 229 229 231 231 226 225 229 229 229 231 230 231 232 228 225 227 231 229 228 230 237 242 241 256 265 262 258 258 258 258 259 259
228 233 232 228 230 235 236 233 229 231 229 221 230 233 233 229 226 227 228 229 232 232 231 232 230 230 231 232 233 233 235 235 243 243 245 244 260 265 260 259 259 259 260